Theta_e
308 309 309 310 310 310 309 309 310 310 310 310 310 309 308 308 309 310 310 310 309 309 309 308 308 310 312 311 311 311 312 312 312 312 312 312 312 311 310 308 307 307 307 306 305 305 303 302 300 299 297 288
307 306 307 307 308 308 307 307 307 308 308 308 307 306 305 306 306 308 307 307 307 307 307 307 306 307 310 311 310 310 311 311 311 311 311 311 310 309 309 307 306 305 306 305 304 303 302 301 300 298 297 287
297 306 305 305 305 306 306 305 305 305 305 305 305 304 304 303 304 304 305 305 305 304 304 305 304 305 307 309 309 308 309 310 310 310 310 309 308 307 306 305 304 303 304 303 303 302 301 301 299 297 293 287
294 303 305 304 304 304 305 304 303 302 303 303 303 303 303 302 297 298 298 302 299 302 302 304 302 303 304 307 307 306 306 307 307 308 308 307 306 305 304 303 302 302 302 302 302 301 300 300 298 288 286 285
294 298 305 305 303 304 303 303 301 301 301 299 301 300 301 298 292 289 290 292 294 300 296 301 301 301 302 304 305 304 304 305 305 305 305 305 304 302 302 300 298 299 300 300 301 301 300 298 289 286 285 284
295 298 300 290 292 297 298 302 302 296 293 298 288 299 293 291 293 289 288 292 298 293 295 296 300 300 300 301 302 301 302 302 303 303 303 303 302 300 299 297 288 289 293 296 298 299 298 290 286 286 285 284
293 292 291 290 291 295 301 299 296 291 293 286 288 289 289 292 289 289 289 292 296 295 298 296 299 299 298 298 299 299 299 299 301 300 300 300 300 297 295 288 285 286 285 286 295 294 289 285 286 286 285 284
291 289 289 288 289 289 289 289 292 288 288 287 286 287 288 289 290 288 286 295 296 294 288 289 295 296 296 295 295 296 293 295 296 297 296 296 296 292 290 285 285 286 285 286 286 286 285 285 286 285 285 284
290 289 289 288 288 288 288 288 287 287 287 286 286 286 288 286 289 286 285 285 286 286 286 285 286 287 287 287 285 293 284 286 286 287 285 285 288 284 285 285 285 285 285 286 286 285 285 286 285 285 286 284
291 292 287 288 288 287 286 287 287 287 286 286 286 285 287 290 285 285 284 284 284 285 285 285 285 286 286 285 285 288 285 285 285 285 284 285 285 284 284 284 284 283 286 285 284 285 285 285 285 285 284 283
291 291 288 288 287 288 287 286 286 286 285 286 285 285 288 287 285 284 283 284 283 284 284 284 284 285 284 284 284 286 285 284 285 284 284 284 284 283 283 283 283 283 283 283 284 284 284 284 285 285 284 283
290 291 289 288 293 292 290 290 286 285 287 287 286 286 286 291 284 284 284 283 283 283 282 284 284 283 284 284 284 285 285 284 284 284 284 284 283 284 283 283 283 283 283 283 282 283 284 284 284 284 284 284
291 290 289 288 289 289 293 290 287 286 286 286 286 286 286 288 284 283 283 283 282 282 282 282 283 283 283 283 284 284 283 283 283 283 283 283 283 283 283 282 282 283 283 282 282 282 283 283 283 283 283 283
291 290 289 289 289 289 291 288 288 285 285 285 284 285 285 286 285 283 283 282 281 283 283 282 282 283 282 283 283 283 283 283 282 283 283 283 283 283 282 283 283 284 282 282 282 281 282 283 283 283 282 283
292 291 290 290 289 288 289 288 288 287 286 284 284 285 284 285 287 285 283 282 282 281 282 282 281 282 282 282 283 283 283 283 283 282 282 283 283 283 282 282 282 282 282 281 282 282 282 282 282 282 282 283
293 291 290 290 289 288 289 288 288 286 286 287 284 284 284 284 284 288 283 283 282 282 282 283 281 281 281 282 282 283 282 282 283 283 282 283 282 282 282 282 281 282 281 281 281 281 281 281 281 282 282 282
293 292 291 290 289 289 290 288 288 287 286 286 286 285 284 284 284 287 286 283 284 286 283 282 281 281 283 283 283 282 282 283 282 281 282 282 282 282 282 282 282 282 281 280 281 280 281 281 281 281 281 282
292 292 291 290 289 290 289 288 286 288 287 286 286 285 284 284 284 286 285 284 283 282 282 282 282 281 282 281 281 282 282 282 281 281 281 281 281 284 283 281 281 280 281 281 280 280 280 280 281 281 281 281
293 292 291 291 290 289 289 289 287 287 287 285 286 285 284 284 285 286 285 284 284 283 282 282 282 281 282 282 281 281 281 281 281 280 281 280 281 281 280 280 281 280 280 280 280 281 281 280 280 281 281 281
293 292 291 290 292 290 288 288 288 288 287 287 285 285 285 284 284 285 284 284 283 283 282 282 282 282 282 281 281 281 280 281 281 281 281 280 279 280 280 281 280 279 280 280 280 281 280 280 281 280 281 281
291 291 290 290 290 290 288 288 288 288 287 286 285 285 284 284 284 285 284 284 283 283 283 282 282 282 282 281 281 280 280 280 281 280 281 280 281 280 279 279 279 280 280 279 280 280 280 280 281 280 281 281
292 291 291 289 289 289 289 289 288 288 286 286 286 285 285 285 284 285 284 284 283 283 283 283 282 282 282 281 280 280 280 280 280 279 279 280 279 280 279 279 279 279 279 280 279 279 279 280 280 280 280 281
290 289 288 286 287 287 288 288 288 287 286 287 286 286 286 285 285 285 284 284 283 283 283 283 282 282 282 281 280 280 280 280 280 280 279 279 279 279 279 279 279 279 279 279 279 279 279 280 280 280 280 281
288 287 289 289 287 287 289 289 289 288 288 287 287 287 286 286 285 285 285 284 283 283 283 282 282 282 282 281 280 280 280 280 279 279 279 278 278 278 279 280 279 279 278 278 277 279 280 280 280 280 281 280
289 289 288 286 287 289 290 289 289 289 288 287 288 287 287 286 286 285 284 284 283 283 284 283 282 282 281 280 280 280 280 280 280 279 279 278 279 279 278 277 278 278 277 276 277 278 277 279 280 281 282 280
290 290 290 288 289 289 289 288 288 289 288 288 288 287 287 287 286 285 285 285 284 284 283 283 282 282 282 281 280 280 281 279 280 279 278 278 277 278 278 277 277 277 277 276 276 275 277 278 280 280 280 280
291 291 290 289 289 287 287 286 288 288 287 285 287 286 286 286 286 285 285 285 284 284 283 283 283 283 282 281 281 280 280 279 279 279 278 277 277 277 277 278 278 277 278 275 276 276 274 276 275 281 281 278
292 290 288 288 289 286 285 288 284 283 283 283 283 285 285 285 285 286 285 285 284 284 284 283 283 283 282 281 281 280 280 280 279 278 277 277 277 277 275 275 274 278 277 276 274 274 272 272 273 276 276 274
290 288 286 286 286 285 286 286 286 285 287 288 287 286 285 286 285 285 285 285 284 284 284 283 283 282 282 281 280 280 279 279 279 278 278 277 276 276 276 275 274 274 276 276 277 276 272 273 271 274 274 275
289 289 289 288 287 288 287 287 287 288 289 290 287 286 287 286 284 284 284 284 283 283 283 283 283 282 281 281 280 279 279 279 279 277 277 277 276 276 276 276 275 273 275 275 276 275 275 277 277 275 273 274
288 288 288 289 289 289 289 288 289 290 289 288 288 284 286 286 282 282 283 283 283 283 283 283 282 282 281 281 280 279 277 278 278 277 276 276 276 276 277 275 273 274 273 272 274 275 275 275 276 272 271 271
Wind_Speed
2 3 3 3 3 4 4 4 4 4 5 5 5 4 4 5 5 6 7 9 9 9 8 8 8 9 9 8 8 8 7 8 8 9 9 10 10 10 10 10 10 11 11 10 10 9 9 10 10 10 7 3
1 2 2 2 2 3 4 4 4 4 4 5 4 4 4 4 4 5 6 8 8 8 7 8 7 8 9 8 8 8 9 8 9 9 10 10 10 10 10 10 10 10 10 10 10 9 8 8 9 8 6 2
1 2 2 2 2 2 3 4 4 4 4 4 4 3 3 4 5 6 6 7 7 7 6 7 7 8 9 8 9 9 9 9 9 9 9 10 9 9 9 10 9 9 9 9 9 9 9 7 6 6 3 1
1 3 4 2 2 2 2 3 4 4 4 4 3 3 3 4 4 5 4 6 4 6 6 6 6 8 8 8 8 9 8 9 9 9 9 10 10 10 10 10 10 10 10 9 9 9 9 8 6 2 1 2
1 2 2 1 1 2 2 3 3 3 4 4 4 3 3 3 2 1 1 2 1 5 3 6 6 7 7 8 8 8 8 8 8 9 9 10 10 10 10 10 11 10 10 10 9 9 9 8 3 3 3 3
2 1 2 1 0 0 1 1 2 2 1 2 1 3 1 0 0 0 1 1 3 1 2 3 5 6 6 7 7 7 7 7 8 8 9 10 10 10 10 10 5 4 7 9 9 9 9 5 4 4 3 3
2 2 2 1 0 0 1 1 1 0 0 0 0 0 1 0 0 0 1 1 2 1 4 3 5 6 6 7 7 7 7 7 7 7 8 9 9 9 9 5 3 3 4 4 8 8 5 4 4 4 4 4
3 3 2 2 0 0 0 1 1 1 1 1 1 2 1 1 0 1 2 4 4 4 3 4 5 6 6 7 7 7 5 6 6 6 6 6 7 5 3 3 4 4 4 4 4 4 4 4 4 4 4 4
4 3 1 2 1 1 1 1 1 2 2 2 2 2 1 1 0 1 2 2 3 4 3 3 3 3 4 3 4 6 4 3 3 3 2 2 2 2 3 4 4 4 5 4 5 5 5 5 5 5 5 5
4 3 3 3 3 2 2 2 3 2 3 2 2 2 1 0 0 0 1 2 3 3 3 3 3 4 4 4 4 3 5 4 3 3 3 3 3 3 2 2 3 3 3 5 5 5 5 5 5 6 6 5
3 4 5 5 4 4 5 3 3 3 3 3 3 2 2 2 1 1 1 1 2 2 2 3 3 4 3 3 4 3 4 4 3 4 5 4 4 3 3 3 3 3 3 3 5 5 5 5 5 6 6 6
5 5 4 4 3 4 4 3 4 4 5 4 3 3 3 1 2 1 1 1 1 2 1 2 2 2 2 2 3 3 3 4 4 4 4 4 4 4 3 3 3 3 3 3 3 4 5 5 5 5 6 6
6 5 5 4 4 5 4 4 5 5 4 4 5 3 3 2 2 1 1 2 2 0 2 2 2 2 2 2 3 2 4 2 4 4 4 4 4 4 4 4 4 4 3 3 3 4 6 4 5 5 5 5
6 6 6 6 5 6 4 6 6 4 5 5 4 4 4 3 3 4 4 3 2 1 3 3 2 2 2 3 4 3 4 3 3 5 4 4 4 4 4 4 4 4 5 4 3 4 5 5 5 5 5 6
7 5 6 6 6 5 6 6 5 5 5 5 5 6 4 4 4 4 3 4 3 3 3 3 3 3 2 3 4 3 5 4 4 4 5 4 5 5 5 5 5 4 5 5 5 4 4 6 5 6 5 5
7 7 7 6 6 7 7 4 6 6 5 6 6 4 5 4 5 4 4 4 4 4 4 4 4 3 3 5 4 3 4 5 4 4 4 4 4 4 4 5 5 4 5 6 6 4 5 5 6 6 5 6
7 6 6 6 7 7 6 6 5 6 6 6 6 4 5 5 5 5 6 6 5 4 5 4 4 4 4 5 5 3 4 4 4 4 4 4 3 4 4 4 5 4 5 6 7 5 6 5 6 6 6 6
7 7 7 6 6 6 6 6 6 6 6 6 6 5 5 6 6 6 6 5 5 4 5 4 4 4 5 5 4 3 3 5 4 5 4 5 4 5 4 6 5 5 7 6 5 6 5 5 6 6 7 7
8 6 7 7 6 6 6 6 6 6 7 6 7 5 6 6 6 6 6 5 6 5 5 5 5 5 6 4 3 4 4 5 5 4 5 3 5 5 5 4 5 3 5 7 9 8 6 7 6 6 7 7
8 8 7 6 6 6 5 6 7 7 7 7 6 6 6 6 6 6 6 6 5 6 6 6 6 6 5 4 4 5 5 3 6 4 5 4 2 5 7 4 6 2 5 6 8 8 7 7 6 7 7 8
6 7 7 6 7 6 5 7 7 7 7 6 6 6 7 6 7 6 6 6 6 7 6 6 7 6 6 4 5 5 5 5 5 4 5 4 3 4 6 6 7 6 4 6 7 8 8 8 7 8 8 8
7 7 6 6 6 5 7 7 7 7 6 7 7 6 7 7 7 6 7 7 6 7 7 7 7 6 6 5 5 6 5 6 4 4 4 6 3 4 4 5 6 8 6 6 7 8 9 10 8 8 8 8
5 4 4 4 5 6 7 7 7 6 7 7 6 7 8 7 7 7 7 7 7 7 7 7 7 7 6 5 6 6 6 6 5 4 4 5 6 3 5 6 6 6 6 7 7 8 11 9 10 8 8 8
5 4 6 7 5 7 8 8 7 7 8 6 7 8 8 7 7 7 8 7 7 8 7 7 7 8 6 5 6 6 7 7 6 6 5 6 5 6 4 5 6 5 5 5 7 10 11 9 9 9 9 8
7 7 6 5 7 10 8 7 6 8 7 8 8 8 8 8 8 8 7 7 7 8 8 8 7 6 6 5 6 6 8 7 6 4 4 3 2 4 5 4 4 4 2 4 8 5 7 9 8 10 9 9
6 8 7 6 8 7 8 7 7 9 7 8 8 8 8 8 8 8 8 8 7 8 8 8 7 7 8 6 6 7 6 4 4 4 3 2 4 2 5 5 2 3 2 4 5 6 8 7 8 8 7 7
10 7 6 6 6 5 6 5 6 6 6 4 7 7 7 8 8 8 9 8 7 8 8 8 8 8 7 7 6 6 7 6 6 4 5 4 5 6 3 5 3 5 6 5 0 2 2 7 7 3 3 4
9 5 4 5 6 4 4 6 3 3 6 6 6 9 6 8 8 9 8 7 7 7 7 8 9 8 7 8 6 7 7 7 7 5 5 5 5 3 6 2 3 3 5 4 0 6 3 4 1 12 1 4
5 4 5 4 4 4 6 6 7 5 10 11 9 7 8 10 6 7 8 7 7 7 9 7 8 8 8 7 7 6 7 8 8 6 5 6 5 6 6 7 3 2 3 4 4 5 3 5 2 6 4 7
4 6 7 5 6 8 8 9 8 11 14 12 7 9 6 6 6 6 7 6 6 7 7 8 8 7 7 8 7 7 7 7 5 5 6 7 7 7 6 7 5 5 2 5 5 5 4 3 7 7 4 5
4 6 6 8 9 9 9 10 10 10 9 8 7 4 7 6 3 4 5 6 5 6 7 7 6 7 7 7 7 5 5 7 8 6 6 5 6 7 6 5 8 9 6 2 5 6 8 7 6 1 2 7
Wind_Direction
96 107 107 100 105 109 104 102 101 100 94 90 77 63 57 47 53 58 65 64 60 53 43 35 24 13 13 16 15 15 19 26 32 33 34 36 37 37 38 37 34 31 29 25 24 19 19 18 18 18 39 20
24 122 105 116 115 105 98 91 88 89 91 89 81 65 57 55 50 54 62 69 62 57 45 36 26 10 8 12 12 12 14 20 26 31 31 32 33 34 34 33 30 26 24 20 17 16 11 11 12 13 30 2
325 307 146 139 113 98 97 84 81 79 86 88 82 73 66 57 46 35 48 59 62 56 48 37 27 11 7 9 11 11 12 17 21 26 28 30 29 29 29 27 24 21 16 13 9 7 4 2 4 9 34 306
295 295 186 148 111 93 108 98 82 81 78 75 78 67 67 61 43 27 9 51 47 59 47 34 30 16 6 7 10 10 12 13 19 22 24 26 26 23 23 22 18 11 8 5 1 0 358 353 0 356 303 286
259 254 172 49 129 125 138 127 104 85 61 50 26 51 40 51 57 12 348 356 18 47 40 33 29 19 8 5 8 7 9 10 17 19 20 22 24 19 18 19 13 4 355 354 353 353 352 354 345 300 296 286
231 235 155 178 353 101 66 97 78 59 50 49 13 9 28 359 235 358 314 343 26 20 40 14 28 16 9 2 3 4 2 9 15 18 17 19 21 17 14 14 9 351 341 343 343 347 347 347 320 302 287 290
229 215 194 206 245 304 119 138 95 351 71 36 323 259 259 259 274 342 349 333 33 31 27 23 23 14 3 356 354 355 356 3 9 18 17 14 18 12 7 3 345 338 334 328 336 339 338 320 309 303 289 276
227 229 215 221 245 84 161 132 165 170 217 245 240 239 250 274 300 8 349 2 15 26 10 1 8 3 359 346 341 343 353 346 347 13 10 8 13 6 351 346 339 337 327 324 321 317 312 307 299 297 288 278
214 219 235 249 262 236 211 199 202 207 205 229 241 251 267 282 336 343 4 10 6 11 6 357 2 355 348 336 322 332 334 324 320 346 334 344 356 353 349 344 335 332 324 320 317 310 304 301 298 296 294 289
210 179 213 230 235 225 238 213 222 220 221 239 244 240 232 182 7 348 9 14 12 4 4 352 345 346 338 334 317 325 322 323 332 328 333 340 339 329 328 317 307 308 302 307 308 306 304 299 298 296 295 293
210 202 217 216 215 205 240 219 223 238 229 231 231 230 217 216 248 335 8 7 3 349 10 334 334 331 335 316 309 317 327 321 322 325 327 329 320 308 318 312 299 290 285 280 294 297 296 298 295 296 292 291
216 222 223 224 221 222 237 205 225 230 219 220 224 223 223 197 188 217 289 309 341 302 358 305 308 304 310 308 291 296 304 312 317 321 319 315 315 322 315 314 306 288 280 280 274 291 288 287 285 283 283 279
221 225 225 232 225 228 229 219 226 222 218 218 226 228 222 191 205 223 223 257 257 324 298 282 283 297 281 290 280 295 295 295 307 308 310 309 306 309 310 309 308 304 295 284 271 266 283 276 272 271 271 269
220 222 220 226 223 223 225 229 228 225 224 223 216 234 221 221 201 212 217 231 227 224 268 265 273 270 268 277 271 271 283 281 284 288 297 294 297 304 302 304 294 309 302 292 272 258 267 271 263 264 267 272
223 216 221 224 220 220 225 226 225 227 227 231 222 226 219 220 217 212 212 211 222 215 234 252 256 262 260 272 260 246 261 273 267 266 265 270 281 286 294 288 289 297 298 292 285 269 271 279 284 278 272 271
222 221 222 225 217 226 229 219 226 231 226 235 227 225 221 219 220 214 220 209 220 219 230 245 247 253 256 257 256 249 255 271 270 262 268 268 263 262 269 284 287 280 285 295 288 290 281 285 283 285 283 280
221 222 224 221 222 228 224 222 227 230 229 233 231 222 221 221 218 220 217 219 218 226 224 234 243 258 250 253 256 262 263 270 277 283 285 288 275 281 273 285 292 292 274 282 295 297 289 290 288 286 287 281
221 224 226 225 229 228 223 227 225 231 232 230 231 224 224 223 222 222 221 214 229 219 230 235 241 253 267 254 254 264 273 272 268 280 289 285 304 292 301 300 299 315 308 295 290 286 287 283 278 285 284 275
223 224 224 227 230 229 222 229 224 234 234 231 231 221 231 225 224 224 219 216 217 226 221 238 247 247 250 257 250 257 255 255 268 262 274 287 303 298 287 276 284 293 288 299 302 298 293 287 288 280 273 278
222 223 222 226 230 230 224 231 230 231 230 230 227 224 233 226 227 223 220 217 213 227 220 230 239 241 244 237 242 245 254 245 260 262 270 257 228 295 292 292 288 273 283 285 286 289 292 285 282 279 277 273
227 226 228 226 230 231 230 230 235 234 232 231 229 228 231 228 227 222 221 219 213 220 227 227 234 241 232 230 228 241 243 245 241 248 264 266 218 203 266 291 287 286 264 277 279 287 286 282 281 273 271 269
224 228 233 236 235 238 239 238 236 239 228 234 230 228 233 228 225 226 222 219 215 220 227 226 229 240 228 223 228 238 238 244 233 233 228 267 238 212 229 265 274 283 286 276 280 282 279 281 273 268 267 262
234 243 253 255 252 255 250 248 242 234 237 234 234 231 232 228 225 227 225 220 215 220 227 230 232 237 232 218 229 236 246 249 242 238 227 237 266 229 227 245 255 262 273 284 283 277 278 277 270 267 260 259
237 239 242 250 260 265 249 246 246 235 235 233 235 234 230 228 228 226 226 220 217 221 224 228 232 235 229 218 219 237 248 250 237 238 240 249 247 271 265 236 249 247 260 272 276 278 276 267 270 264 260 259
210 225 241 246 239 242 245 233 237 246 236 233 236 234 229 229 229 229 227 225 215 221 224 229 235 234 239 217 221 232 244 248 248 230 225 244 237 263 289 280 217 242 195 284 292 260 262 282 258 258 263 257
208 217 206 194 225 222 245 240 238 252 241 234 240 233 231 232 231 228 227 226 216 224 221 230 231 232 237 221 228 234 251 260 247 241 225 223 283 212 240 263 188 209 101 276 227 322 317 295 294 267 260 257
226 221 229 215 240 199 259 241 243 251 267 258 246 239 230 234 231 227 233 228 218 222 225 228 230 236 229 228 222 236 249 242 249 224 228 209 231 283 246 250 242 228 186 243 215 235 305 295 346 303 289 305
239 241 237 244 268 280 243 275 298 288 285 270 262 258 235 240 228 228 236 229 221 226 230 224 228 235 228 231 210 219 240 242 243 217 219 207 223 216 280 245 285 200 214 190 43 315 208 262 358 308 285 342
242 256 268 267 296 301 301 284 273 287 276 251 241 255 241 241 222 232 236 234 227 226 232 229 231 229 233 229 218 207 227 239 237 220 208 201 205 203 225 269 251 284 199 219 209 191 316 315 341 227 279 341
219 229 234 247 249 262 250 265 265 254 248 260 234 236 260 255 214 222 234 238 235 233 236 238 233 231 233 234 225 212 222 236 239 222 208 204 205 220 220 232 262 266 229 210 234 237 224 192 244 299 294 17
211 240 236 235 239 243 248 250 257 250 257 258 270 242 256 256 237 225 235 251 244 245 244 249 247 239 235 239 234 221 216 233 231 225 215 199 200 217 209 206 243 246 249 301 250 227 243 255 264 209 332 260